MPEC 2001-A08: 2000 YK29

The following Minor Planet Electronic Circular may be linked-to from your own Web pages, but must not otherwise be redistributed electronically.


Read MPEC 2001-A07 Read MPEC 2001-A09


M.P.E.C. 2001-A08                                Issued 2001 Jan. 1, 19:23 UT

     The Minor Planet Electronic Circulars contain information on unusual
         minor planets and routine data on comets.  They are published
   on behalf of Commission 20 of the International Astronomical Union by the
          Minor Planet Center, Smithsonian Astrophysical Observatory,
                          Cambridge, MA 02138, U.S.A.

             Prepared using the Tamkin Foundation Computer Network

                              MPC@CFA.HARVARD.EDU
          URL http://cfa-www.harvard.edu/iau/mpc.html  ISSN 1523-6714

                                   2000 YK29

Observations:
     K00Y29K* C2000 12 24.54630 05 44 04.99 -09 12 11.4          17.1        608
     K00Y29K  C2000 12 24.55779 05 44 03.79 -09 11 51.9          17.2        608
     K00Y29K  C2000 12 24.56933 05 44 02.58 -09 11 32.4          17.3        608
     K00Y29K  C2000 12 25.48565 05 42 32.67 -08 45 22.9          18.1        608
     K00Y29K  C2000 12 25.49767 05 42 31.38 -08 45 01.5          18.3        608
     K00Y29K  C2000 12 25.50937 05 42 30.12 -08 44 41.0          18.3        608
     K00Y29K  C2000 12 26.77837 05 40 26.80 -08 06 41.9          16.7 R      046
     K00Y29K  C2000 12 26.77940 05 40 26.65 -08 06 40.3                      046
     K00Y29K  C2000 12 26.78042 05 40 26.56 -08 06 38.3                      046
     K00Y29K  C2000 12 26.78164 05 40 26.49 -08 06 36.5                      046
     K00Y29K  C2000 12 26.78328 05 40 26.30 -08 06 33.5                      046
     K00Y29K  C2000 12 27.07378 05 39 57.46 -07 57 30.4          18.2 V      912
     K00Y29K  C2000 12 27.09350 05 39 55.49 -07 56 55.0          18.0 V      912
     K00Y29K  C2000 12 27.11297 05 39 53.25 -07 56 16.8          18.1 V      912
     K00Y29K  C2000 12 27.21411 05 39 43.47 -07 53 04.2          17.8        919
     K00Y29K  C2000 12 27.21618 05 39 43.25 -07 53 01.2          18.1        919
     K00Y29K  C2000 12 27.21875 05 39 42.92 -07 52 55.8          18.0        919
     K00Y29K  C2000 12 27.22266 05 39 42.44 -07 52 49.2          17.8        919
     K00Y29K  C2000 12 27.22580 05 39 42.11 -07 52 43.5          18.1        919
     K00Y29K  C2000 12 27.23466 05 39 41.50 -07 52 26.3                      670
     K00Y29K  C2000 12 27.34234 05 39 29.96 -07 49 03.3                      670
     K00Y29K  C2000 12 27.37478 05 39 26.40 -07 48 01.4                      670
     K00Y29K  C2000 12 27.59350 05 39 05.61 -07 41 05.4          18.0 V      900
     K00Y29K  C2000 12 27.60114 05 39 04.74 -07 40 50.7                      900
     K00Y29K  C2000 12 28.31017 05 37 54.95 -07 17 54.4          17.7        919
     K00Y29K  C2000 12 28.31219 05 37 54.68 -07 17 50.5          17.8        919
     K00Y29K  C2000 12 28.31632 05 37 54.17 -07 17 41.5          17.7        919
     K00Y29K  C2000 12 28.46321 05 37 39.69 -07 12 47.4          17.9        608
     K00Y29K  C2000 12 28.47308 05 37 38.64 -07 12 27.8          18.0        608
     K00Y29K  C2000 12 28.48312 05 37 37.55 -07 12 07.8          18.2        608
     K00Y29K  C2000 12 28.93029 05 36 54.64 -06 57 25.1                      557
     K00Y29K  C2000 12 28.93256 05 36 54.39 -06 57 20.2                      557
     K00Y29K  C2000 12 28.93484 05 36 54.22 -06 57 15.9                      557
     K00Y29K  C2000 12 28.93712 05 36 53.98 -06 57 11.6                      557
     K00Y29K  C2000 12 28.96227 05 36 51.35 -06 56 20.3          17.3 R      046
     K00Y29K  C2000 12 28.96380 05 36 51.17 -06 56 17.1                      046
     K00Y29K  C2000 12 28.96477 05 36 51.08 -06 56 14.9                      046
     K00Y29K  C2000 12 28.96595 05 36 50.97 -06 56 12.6                      046
     K00Y29K  C2000 12 29.24332 05 36 24.68 -06 46 46.9                      670
     K00Y29K  C2000 12 29.32806 05 36 15.83 -06 43 55.4                      670
     K00Y29K  C2000 12 29.37810 05 36 10.50 -06 42 12.8                      670
     K00Y29K  C2000 12 29.39937 05 36 09.18 -06 41 21.3          17.4        608
     K00Y29K  C2000 12 29.40958 05 36 08.08 -06 41 00.5          17.5        608
     K00Y29K  C2000 12 29.41945 05 36 07.03 -06 40 40.3          17.5        608
     K00Y29K  C2000 12 29.61177 05 35 48.26 -06 34 13.4          18.0 V      402
     K00Y29K  C2000 12 29.61302 05 35 48.14 -06 34 10.8                      402
     K00Y29K  C2000 12 29.61429 05 35 48.01 -06 34 08.2                      402
     K00Y29K  C2000 12 29.61555 05 35 47.89 -06 34 05.5                      402
     K00Y29K  C2000 12 30.20215 05 34 52.12 -06 13 42.1                      854
     K00Y29K  C2000 12 30.20529 05 34 51.85 -06 13 36.5                      854
     K00Y29K  C2000 12 30.20959 05 34 51.34 -06 13 26.6          18.7 R      854
     K00Y29K  C2000 12 30.30303 05 34 41.37 -06 10 09.6          18.4        919
     K00Y29K  C2000 12 30.30656 05 34 41.18 -06 10 02.0          18.2        919
     K00Y29K  C2000 12 30.31242 05 34 40.56 -06 09 50.6          18.2        919
     K00Y29K  C2000 12 30.31457 05 34 40.31 -06 09 45.1          18.3        919
     K00Y29K  C2000 12 30.52221 05 34 20.95 -06 02 00.5          18.4 R      428
     K00Y29K  C2000 12 30.52693 05 34 20.42 -06 01 49.9          18.4 R      428
     K00Y29K  C2000 12 30.53157 05 34 19.90 -06 01 39.8          18.1 R      428
     K00Y29K  C2000 12 30.53637 05 34 19.42 -06 01 29.8          18.5 R      428
     K00Y29K  C2000 12 30.59618 05 34 14.13 -05 59 20.9                      322
     K00Y29K  C2000 12 30.60174 05 34 13.57 -05 59 08.8                      322
     K00Y29K  C2000 12 30.61385 05 34 12.27 -05 58 43.5                      322
     K00Y29K  C2000 12 30.61955 05 34 11.71 -05 58 31.0                      322
     K00Y29K  C2000 12 30.89631 05 33 45.41 -05 49 10.4          17.7 V      151
     K00Y29K  C2000 12 30.90364 05 33 44.62 -05 48 53.9          17.7 V      151
     K00Y29K  C2000 12 30.90564 05 33 44.44 -05 48 50.5          18.1 V      151
     K00Y29K  C2000 12 30.91425 05 33 43.58 -05 48 29.4          17.2 V      151
     K00Y29K  C2000 12 30.92278 05 33 42.48 -05 48 13.7                      557
     K00Y29K  C2000 12 30.92506 05 33 42.27 -05 48 09.5                      557
     K00Y29K  C2000 12 30.92962 05 33 41.77 -05 47 58.9                      557
     K00Y29K  C2000 12 31.90520 05 32 09.68 -05 12 24.2          17.4        106
     K00Y29K  C2000 12 31.92868 05 32 07.29 -05 11 31.8          17.7        106
     K00Y29K  C2000 12 31.94844 05 32 05.28 -05 10 47.9          17.3        106
     K00Y29K  C2001 01 01.00111 05 32 00.00 -05 08 51.8                      557
     K00Y29K  C2001 01 01.00338 05 31 59.75 -05 08 47.0                      557
     K00Y29K  C2001 01 01.00566 05 31 59.54 -05 08 42.0                      557
     K00Y29K  C2001 01 01.00794 05 31 59.31 -05 08 36.8                      557
     K00Y29K  C2001 01 01.20123 05 31 42.29 -05 01 19.7          17.6        919
     K00Y29K  C2001 01 01.20676 05 31 41.90 -05 01 06.3          17.1        919

Observer details:
046 Klet.  Observers J. Ticha, M. Tichy, M. Kocer.  0.57-m f/5.2 reflector
    + CCD.
106 Crni Vrh.  Observer J. Skvarc.  0.36-m f/6.7 Schmidt-Cassegrain + CCD.
151 Eschenberg Observatory, Winterthur.  Observer M. Griesser.  0.40-m f/5.8
    Hypergraph.
322 Perth Observatory, Bickley-MCT.  Observer J. Biggs.  0.25-m f/4.5 reflector
    + CCD.
402 Dynic Astronomical Observatory.  Observer A. Sugie.  0.60-m f/3.7 reflector
    + CCD.
428 Reedy Creek.  Observer J. Broughton.  0.25-m f/6.3 Schmidt-Cassegrain
    + CCD.
557 Ondrejov.  Observers P. Kusnirak, U. Babiakova.  0.65-m f/3.6 reflector
    + CCD.
608 Haleakala-NEAT/MSSS.  Observers E. F. Helin, S. Pravdo, K. Lawrence,
    P. Kervin, R. Maeda, M. Skinner.  1.2-m reflector + CCD.
670 Camarillo.  Observer J. E. Rogers.  0.30-m f/6.7 Helin Telescope + CCD.
854 Sabino Canyon Observatory, Tucson.  Observer J. E. McGaha.  0.30-m f/6.1
    Schmidt-Cassegrain + CCD.
900 Moriyama.  Observer Y. Ikari.  0.25-m f/6.3 reflector + CCD.
912 Carbuncle Hill Observatory, Greene.  Observer D. P. Pray.  0.30-m f/3.3
    Schmidt-Cassegrain + CCD.
919 Desert Beaver Observatory.  Observer K. W. Yeung.  0.45-m reflector + CCD.

Orbital elements:
2000 YK29
Epoch 2000 Dec. 22.0 TT = JDT 2451900.5                 Williams
M 306.17971              (2000.0)            P               Q
n   0.60948093     Peri.   31.73889     -0.89418631     -0.39083826
a   1.3777253      Node   123.70138     +0.33581258     -0.90808551
e   0.1286901      Incl.   15.21593     +0.29607560     -0.15041995
P   1.62           H   18.1           G   0.15
From 79 observations 2000 Dec. 24-2001 Jan. 1.

Ephemeris:
2000 YK29                a,e,i = 1.38, 0.13, 15                  q = 1.2004
Date    TT    R. A. (2000) Decl.     Delta      r     Elong.  Phase     V
2001 01 01    05 32.01   -05 08.6    0.331    1.273   146.5    25.2    17.4
2001 01 11    05 18.25   +01 48.6    0.326    1.257   142.2    28.6    17.4
2001 01 21    05 10.00   +09 38.1    0.334    1.243   134.8    34.2    17.6
2001 01 31    05 09.03   +17 22.0    0.355    1.230   126.4    40.1    17.9
2001 02 10    05 15.83   +24 21.0    0.385    1.219   118.6    45.3    18.2
2001 02 20    05 29.94   +30 17.5    0.421    1.211   111.9    49.3    18.5
2001 03 02    05 50.85   +35 06.8    0.462    1.205   106.3    52.2    18.7
2001 03 12    06 17.77   +38 48.6    0.503    1.201   101.7    54.1    19.0
2001 03 22    06 49.64   +41 22.9    0.546    1.200    97.9    55.3    19.2
2001 04 01    07 25.33   +42 50.0    0.588    1.202    94.9    55.9    19.4
2001 04 11    08 03.32   +43 11.0    0.630    1.207    92.5    56.1    19.5
2001 04 21    08 42.04   +42 28.8    0.672    1.213    90.5    55.9    19.7
2001 05 01    09 20.20   +40 48.4    0.713    1.223    88.9    55.5    19.8
2001 05 11    09 56.84   +38 17.2    0.754    1.234    87.5    54.9    19.9
2001 05 21    10 31.44   +35 03.4    0.796    1.247    86.3    54.1    20.1
2001 05 31    11 03.96   +31 15.7    0.840    1.262    85.3    53.2    20.2
2001 06 10    11 34.53   +27 03.0    0.886    1.278    84.2    52.2    20.3
2001 06 20    12 03.43   +22 33.2    0.934    1.296    83.1    51.1    20.4
2001 06 30    12 31.05   +17 53.8    0.987    1.314    82.0    50.0    20.5
2001 07 10    12 57.69   +13 11.6    1.043    1.332    80.6    48.8    20.6
2001 07 20    13 23.68   +08 32.5    1.103    1.351    79.1    47.6    20.8
2001 07 30    13 49.33   +04 01.4    1.168    1.370    77.4    46.3    20.9
2001 08 09    14 14.85   -00 17.4    1.238    1.389    75.5    44.9    21.0
2001 08 19    14 40.47   -04 20.5    1.311    1.408    73.3    43.5    21.1
2001 08 29    15 06.37   -08 05.3    1.388    1.426    71.0    42.1    21.2
2001 09 08    15 32.66   -11 29.4    1.467    1.443    68.5    40.5    21.3
2001 09 18    15 59.44   -14 31.4    1.548    1.459    65.8    38.9    21.4
2001 09 28    16 26.78   -17 10.0    1.631    1.474    62.9    37.2    21.5

Gareth V. Williams           (C) Copyright 2001 MPC           M.P.E.C. 2001-A08

Read MPEC 2001-A07 Read MPEC 2001-A09


Our Web policy. Index to the CBAT/MPC/ICQ pages.

MPC